Location: Mexico
(19.4000°N, 99.1500°W)
Time: 09:43:15
(UTC-06:00)

ISS - Pass Details

Date: 20 January 2018
Orbit: 402 x 407 km, 51.6° (Epoch: 23 January)

Event Time Altitude Azimuth Distance (km) Brightness Sun altitude
Exits shadow 05:07:01 14° 82° (E) 1,225 -0.7 -29.4°
Drops below altitude 10° 05:07:53 10° 95° (E) 1,454 -0.1 -29.2°
Sets 05:10:22 0° 114° (ESE) 2,313 1.2 -28.6°
